Change the Weather History Date:

Monday, August 11, 2014

  Actual Average Record
Temperature  
Mean Temperature 80 °F 80 °F  
Max Temperature 90 °F 91 °F 102 °F (2007)
Min Temperature 70 °F 70 °F 60 °F (1989)
Cooling Degree Days 15 15  
Month to date cooling degree days 147 167  
Year to date cooling degree days 1284 1269  
Since 1 June cooling degree days 1014 1029  
Growing Degree Days 30 (Base 50)    
Moisture  
Dew Point 70 °F    
Average Humidity 76    
Maximum Humidity 100    
Minimum Humidity 52    
Precipitation  
Precipitation 0.00 in 0.11 in 2.00 in (1991)
Month to date precipitation 0.32 1.36  
Year to date precipitation 27.92 29.12  
Sea Level Pressure  
Sea Level Pressure 30.01 in    
Wind  
Wind Speed 2 mph (NE)    
Max Wind Speed 8 mph    
Max Gust Speed 9 mph    
Visibility 7 miles    
Events      
T = Trace of Precipitation, MM = Missing Value Source: NWS Daily Summary

Daily Weather History Graph

Daily Weather History Graph

Search for Another Location

Airport or City:

Trip Planner

Search our weather history database for the weather conditions in past years. The results will help you decide how hot, cold, wet, or windy it might be!

Date:

Astronomy

Aug. 11, 2014 Rise Set
Actual Time 6:52 AM EDT 8:24 PM EDT
Civil Twilight 6:25 AM EDT 8:51 PM EDT
Nautical Twilight 5:53 AM EDT 9:22 PM EDT
Astronomical Twilight 5:19 AM EDT 9:56 PM EDT
Moon 8:59 PM EDT (8/11) 7:50 AM EDT (8/11)
Length of Visible Light 14h 25m
Length of Day
13h 32m
Full, 99% of the Moon is Illuminated
Aug 11
Full
Aug 17
Last Quarter
Aug 25
New
Sep 2
First Quarter
Sep 8
Full

Hourly Weather History & Observations

Time (EDT) Temp. Heat Index Dew Point Humidity Pressure Visibility Wind Dir Wind Speed Gust Speed Precip Events Conditions
1:51 AM 71.1 °F - 69.1 °F 93% 30.05 in 10.0 mi NNE 5.8 mph - N/A   Overcast
1:59 AM 71.6 °F - 69.8 °F 94% 30.06 in 10.0 mi NNE 4.6 mph - N/A   Overcast
2:51 AM 71.1 °F - 69.1 °F 93% 30.01 in 10.0 mi ENE 8.1 mph - N/A   Overcast
3:51 AM 71.1 °F - 68.0 °F 90% 30.01 in 10.0 mi NE 3.5 mph - N/A   Overcast
4:51 AM 71.6 °F - 68.0 °F 88% 30.02 in 10.0 mi ENE 5.8 mph - N/A   Overcast
5:21 AM 71.6 °F - 69.8 °F 94% 30.02 in 9.0 mi NE 4.6 mph - N/A   Overcast
5:51 AM 71.1 °F - 69.1 °F 93% 30.00 in 2.5 mi NE 4.6 mph - N/A   Overcast
6:12 AM 71.6 °F - 69.8 °F 94% 30.03 in 3.0 mi NNE 3.5 mph - N/A   Overcast
6:35 AM 69.8 °F - 69.8 °F 100% 30.03 in 2.5 mi NE 3.5 mph - N/A   Overcast
6:51 AM 70.0 °F - 69.1 °F 97% 30.02 in 2.0 mi ENE 3.5 mph - N/A   Overcast
7:16 AM 69.8 °F - 69.8 °F 100% 30.04 in 1.8 mi ENE 3.5 mph - N/A   Overcast
7:38 AM 69.8 °F - 69.8 °F 100% 30.05 in 1.2 mi Calm Calm - N/A   Overcast
7:47 AM 71.6 °F - 69.8 °F 94% 30.05 in 1.5 mi Calm Calm - N/A   Overcast
7:51 AM 69.8 °F - 69.8 °F 100% 30.05 in 1.8 mi Calm Calm - N/A   Overcast
8:19 AM 71.6 °F - 69.8 °F 94% 30.06 in 1.0 mi Calm Calm - N/A   Overcast
8:46 AM 71.6 °F - 69.8 °F 94% 30.06 in 1.8 mi East 3.5 mph - N/A   Overcast
8:51 AM 71.1 °F - 70.0 °F 96% 30.04 in 2.0 mi East 3.5 mph - N/A   Overcast
9:00 AM 71.6 °F - 69.8 °F 94% 30.07 in 2.0 mi Calm Calm - N/A   Overcast
9:10 AM 71.6 °F - 69.8 °F 94% 30.07 in 4.0 mi Calm Calm - N/A   Overcast
9:39 AM 75.2 °F - 69.8 °F 83% 30.07 in 10.0 mi Calm Calm - N/A   Overcast
9:51 AM 73.9 °F - 69.1 °F 85% 30.05 in 10.0 mi Calm Calm - N/A   Overcast
10:51 AM 75.0 °F - 70.0 °F 84% 30.04 in 10.0 mi Calm Calm - N/A   Overcast
11:02 AM 75.2 °F - 69.8 °F 83% 30.06 in 10.0 mi Calm Calm - N/A   Overcast
11:51 AM 78.1 °F - 70.0 °F 76% 30.04 in 10.0 mi Calm Calm - N/A   Overcast
11:59 AM 78.8 °F - 69.8 °F 74% 30.06 in 10.0 mi Calm Calm - N/A   Overcast
12:51 PM 81.0 °F 84.4 °F 70.0 °F 69% 30.02 in 10.0 mi Calm Calm - N/A   Overcast
1:51 PM 82.9 °F 86.5 °F 69.1 °F 63% 30.00 in 10.0 mi Calm Calm - N/A   Mostly Cloudy
2:02 PM 84.2 °F 88.4 °F 69.8 °F 62% 30.01 in 10.0 mi Calm Calm - N/A   Mostly Cloudy
2:51 PM 86.0 °F 90.7 °F 70.0 °F 59% 29.98 in 10.0 mi Calm Calm - N/A   Partly Cloudy
3:51 PM 89.1 °F 94.1 °F 70.0 °F 53% 29.96 in 10.0 mi Calm Calm - N/A   Mostly Cloudy
4:51 PM 87.1 °F 91.3 °F 69.1 °F 55% 29.94 in 10.0 mi NW 3.5 mph - N/A   Mostly Cloudy
5:51 PM 87.1 °F 91.3 °F 69.1 °F 55% 29.92 in 10.0 mi Calm Calm - N/A   Clear
6:51 PM 84.9 °F 89.4 °F 70.0 °F 61% 29.91 in 10.0 mi West 3.5 mph - N/A   Partly Cloudy
7:51 PM 82.0 °F 86.7 °F 72.0 °F 71% 29.91 in 10.0 mi South 3.5 mph - N/A   Clear
8:51 PM 79.0 °F - 73.0 °F 82% 29.92 in 10.0 mi Calm Calm - N/A   Partly Cloudy
9:51 PM 77.0 °F - 73.0 °F 88% 29.94 in 10.0 mi Calm Calm - N/A   Clear
11:51 PM 77.0 °F - 73.4 °F 89% 29.96 in 10.0 mi Calm Calm - N/A   Clear